Location: Antioch
(38.0049°N, 121.8058°W)
Time: 19:10:19
(UTC+00:00)

Cosmos 1000 Rocket - Pass Details

Date: 11 February 2026
Orbit: 954 x 990 km, 82.9° (Epoch: 10 March)

Event Time Altitude Azimuth Distance (km) Brightness Sun altitude
Rises 12:41:46 0° 353° (N) 3,697 7.5 -28.1°
Reaches altitude 10° 12:44:17 10° 354° (N) 2,749 6.8 -27.6°
Maximum altitude 12:50:38 85° 84° (E) 997 4.5 -26.3°
Drops below altitude 10° 12:56:56 10° 173° (S) 2,741 6.9 -25.1°
Sets 12:59:27 0° 174° (S) 3,686 7.6 -24.6°
